CZ-6A DEB, 61498

Orbit data source: Space-Track

CZ-6A DEB, 61498 is space debris in LEO originally from a launch on Tue, 06 Aug 2024 UTC launched from the Taiyaun Space Center, China (TSC). Debris objects in space refer to the collection of defunct objects orbiting the Earth. Examples of debris include non-operational satellites, rocket bodies, and fragments generated from explosions, collisions, or faulty payload assembly.

Loading next visibility...
Identifier
61498, 2024-140ABG
Orbit
LEO
Country
Flag of CNCN / PRC
Related business
Manufacturer
SAST
Mission
Spacecraft
Bus & Motor
Unknown
Mass
Unknown
Launch date (UTC)
2024-08-06 (2 years ago)
Launch vehicle
Unknown
Launch site
Taiyaun Space Center, China (TSC)
Object type
Payload
Rocket body
Debris
Shape & HBR
Unknown shape, 0.1 m
Radar Cross Section
Small (<0.1 m²)

Expand to show TLE details & history
Last TLE update: 1 day ago

TLE from 1 day ago
0 CZ-6A DEB
1 61498U 24140ABG 26117.91381926  .00196091  00000-0  61528-2 0  9995
2 61498  89.2085 290.7589 0048018 250.7959 108.8093 15.31148544 87561
Epoch: 2026-04-27T21:55Z
TLE epoch observation values (Epoch: 2026-04-27T21:55:53.984Z)
Latitude
-0.00001°
Longitude
105.88731°
Altitude
486.345 km
Speed
7.616 km/s
True Right ascension
19h 23m 02s
True Declination
0° 00' 00"
Sunlit
Object was in daylight at epoch
Visualization orbit readout
Latitude
Unknown
Longitude
Unknown
Altitude
Unknown
Speed
Unknown
Apparent Right ascension
Unknown
Apparent Declination
Unknown
Sunlit
N/A
Visualization observer readout
Local Sidereal Time
10:05:34
Azimuth
Unknown
Elevation
Unknown
Doppler factor
Unknown
Orbital elements
Apogee altitude
502.056 km
Perigee altitude
436.298 km
Semi-major axis
6,847.314 km
Eccentricity
0.0048
Inclination
89.2085°
RAAN
290.7589°
Arg. of periapsis
250.7959°
True anomaly
109.32915°
Mean anomaly
108.8093°
Eccentric anomaly
109.06933°
Mean motion
3.83056 °/min
Orbital period
93.98 mins
BSTAR
0.0061528
Loading maneuver chart data...
Computing Atmospheric mass density...
Loading historical data...
Loading historical data...
Loading historical data...
Loading historical data...
Loading historical data...
Loading historical data...
Loading historical data...

Documentation

Showing up to 5 results
|